Meteo Giornale » Osservazioni meteo Austria » Vienna-Schwechat

ore: 00:50 - Osservazioni Meteo Vienna-Schwechat
Lat. 48° 7' N Lon. 16° 34' E Alt. 183 metri s.l.m.

sereno Europe/Vienna

9 °C

Sereno

Temp. 24 Ore

5 °C

15 °C

Sud

13 Km/h

Dew point 5 °C

Umidità 75 %

Visibilità  10 Km

Il sole sorge alle ore 05:23

Il sole tramonta alle ore 20:17

Data e Ora Cielo e Fenomeni T °C DP °C Um. % Pres. hPa Vis. km Vento km/h
Oggi h: 00:50 sereno Sereno 9 5 75 1006 10 S 13
Oggi h: 00:20 sereno Sereno 9 5 75 1006 10 S 20.3
Ieri h: 23:50 sereno Sereno 9 5 75 1006 10 S/SE 20.3
Ieri h: 23:20 sereno Sereno 9 5 75 1007 10 S/SE 24
Ieri h: 22:50 sereno Sereno 10 5 71 1007 10 S/SE 25.9
Ieri h: 22:20 sereno Sereno 9 5 75 1007 10 S/SE 27.8
Ieri h: 21:50 sereno Sereno 9 4 70 1007 10 S/SE 27.8
Ieri h: 21:20 sereno Sereno 9 4 70 1008 10 S/SE 22.2
Ieri h: 20:50 sereno Sereno 10 3 61 1008 10 S/SE 25.9
Ieri h: 20:20 sereno Sereno 10 3 61 1008 10 S/SE 29.6
Ieri h: 19:20 sereno Sereno 12 3 54 1009 10 S/SE 31.5
Ieri h: 18:50 sereno Sereno 13 2 47 1009 10 S 33.3
Ieri h: 18:20 sereno Sereno 13 2 47 1009 10 S 33.3
Ieri h: 17:50 sereno Sereno 14 2 44 1009 10 S 40.7
Ieri h: 17:20 sereno Sereno 14 3 47 1010 10 S 38.8
Ieri h: 16:50 sereno Sereno 15 3 44 1010 10 S 38.8
Ieri h: 16:20 sereno Sereno 14 2 44 1011 10 S 37
Ieri h: 15:50 sereno Sereno 15 4 47 1011 10 S 29.6
Ieri h: 15:20 sereno Sereno 15 3 44 1012 10 S 35.2
Ieri h: 14:50 sereno Sereno 15 4 47 1012 10 S 35.2
Ieri h: 14:20 poco_nuvoloso Poco Nuvoloso 15 3 44 1012 10 S 27.8
Ieri h: 13:50 poco_nuvoloso Poco Nuvoloso 14 3 47 1013 10 S 27.8
Ieri h: 13:20 poco_nuvoloso Poco Nuvoloso 14 3 47 1013 10 S 22.2
Ieri h: 12:50 poco_nuvoloso Poco Nuvoloso 14 4 50 1013 10 S 22.2
Ieri h: 12:20 poco_nuvoloso Poco Nuvoloso 13 3 50 1014 10 S 18.5
Ieri h: 11:50 sereno Sereno 12 4 57 1014 10 S 18.5
Ieri h: 11:20 sereno Sereno 12 5 62 1014 10 S 16.7
Ieri h: 10:50 sereno Sereno 11 5 66 1014 10 S 14.8
Ieri h: 10:20 sereno Sereno 11 3 57 1014 10 S 13
Ieri h: 09:50 sereno Sereno 10 4 66 1014 10 S 13
Ieri h: 09:20 sereno Sereno 9 3 66 1014 10 S 13
Ieri h: 08:50 sereno Sereno 9 3 66 1014 10 S 14.8
Ieri h: 08:20 sereno Sereno 8 3 70 1014 10 N 5.5
Ieri h: 07:50 sereno Sereno 7 3 75 1014 10 S/SE 11.1
Ieri h: 07:20 sereno Sereno 6 3 81 1014 10 S/SE 7.4
Ieri h: 06:50 sereno Sereno 6 2 75 1014 10 S/SE 9.3
Ieri h: 06:20 sereno Sereno 6 2 75 1014 10 N 3.7
Ieri h: 05:50 sereno Sereno 5 1 75 1014 10 N 3.7
Ieri h: 05:20 sereno Sereno 7 0 60 1014 10 O 14.8
Ieri h: 04:50 sereno Sereno 7 0 60 1013 10 O 14.8
Ieri h: 04:20 sereno Sereno 7 0 60 1014 10 O 14.8
Ieri h: 03:50 sereno Sereno 8 0 56 1013 10 O/NO 13
Ieri h: 03:20 sereno Sereno 7 0 60 1014 10 O 11.1
Ieri h: 02:50 sereno Sereno 7 1 65 1013 10 O/SO 11.1
Ieri h: 02:20 sereno Sereno 8 0 56 1013 10 O 14.8
Ieri h: 01:50 sereno Sereno 8 0 56 1013 10 O 16.7